COSMOS 507

Satellite information

Favourite Embed

Satellite Type and Status

PAYLOADIN ORBIT

Key statistics

Satellite COSMOS 507 at a glance.

Uptime

19464

Days in orbit

Revolutions

≈ 12.5

Per day

Orbit

LEO

Low Earth Orbit

Inclination

74.0

Latest

Satellite identification and parameters

Extended collection of information and parameters for COSMOS 507.

Object identification

Identified? True

Debris? False

Object name: COSMOS 507

International designator: 1972-057D

Object number (NORAD): 6120

Object ID (CCSDS): 6120

Country: COMMONWEALTH OF INDEPENDENT STATES (CIS)

Current information (Y/N): Y

RCS size: MEDIUM

Orbital parameters

Period: 114.956 minutes

Inclination: 74.0251 deg

SMA: 7831.559 km

Apoapsis: 1496.112 km

Periapsis: 1410.735 km

RAAN: 151.8378 deg

Eccentricy: 0.00545079

Argument of periapsis: 231.0349 deg

Mean anomaly: 157.6437 deg

Mean motion: 12.52652057 rev/day

Mean motion (dot): 0.00000016 rev/day2

B* drag term: 0.00020128846 1/REarth

Two-line elements (TLE)

Creation date: Nov. 1, 2025, 7:40 p.m.

Reference frame: TEME

Reference center: EARTH

Epoch: Nov. 1, 2025, 1:09 p.m. UTC

TLE line 0: 0 COSMOS 507

TLE line 1: 1 06120U 72057D 25305.54800782 .00000016 00000-0 20129-3 0 9993

TLE line 2: 2 06120 74.0251 151.8378 0054508 231.0349 157.6437 12.52652057436457

Live tracking on map

Real-time ground track for satellite COSMOS 507.

In-orbit conjunctions

There are no conjunctions computed for COSMOS 507, at the moment. Check back to stay up to date, as we update our databases every day.

Go to all conjunctions

Associated space launch

Military communications satellites

COSMOS 507 was lifted into orbit during the mission ‘Kosmos-3M | Strela-1M 25-32’, on board a Kosmos-3M space rocket.

The launch took place on July 20, 1972, 6:10 p.m. from 132/2.

For more information about the launch, click the button.

Launch to space Kosmos-3M | Strela-1M 25-32
Kosmos-3M | Strela-1M 25-32

Agency: N/A

Status: Launch Successful

Launch date: July 20, 1972, 6:10 p.m. UTC

Rocket: Kosmos-3M

Launch pad: 132/2

Location: Plesetsk Cosmodrome, Russian Federation

...

Latest news about this satellite

There are no fresh news available about this satellite. Check back as we update our databases every day.


Newsletter sign-up

Weekly statistics, charts and insights to help you stay on top of the space industry.